• In Germany
  • List of Countries
  • For 7 days
  • Water Temperature
  • Satellite Maps
  • Weather Map
  • Weather Widgets
  • user-avatar
    Login

    Hourly Weather Kitzbuhel

    Today, 20 September, Wednesday

    Time Temperature Precipitation Wind Pressure Humidity
    00:00 +4°C° 0.5 mm 2 mps 676 mmHg 97%
    01:00 +4°C° 0 mm 2 mps 676 mmHg 97%
    02:00 +4°C° 0.4 mm 2 mps 677 mmHg 97%
    03:00 +4°C° 0.4 mm 2 mps 677 mmHg 97%
    04:00 +4°C° 0.4 mm 2 mps 677 mmHg 97%
    05:00 +4°C° 0.4 mm 2 mps 677 mmHg 97%
    06:00 +4°C° 0.4 mm 2 mps 677 mmHg 96%
    07:00 +5°C° 0 mm 2 mps 677 mmHg 97%
    08:00 +5°C° 0.3 mm 2 mps 677 mmHg 96%
    09:00 +6°C° 0.3 mm 2 mps 677 mmHg 94%
    10:00 +7°C° 0.3 mm 2 mps 678 mmHg 93%
    11:00 +7°C° 0.3 mm 2 mps 678 mmHg 91%
    12:00 +8°C° 0.3 mm 2 mps 678 mmHg 88%
    13:00 +9°C° 0.3 mm 2 mps 678 mmHg 86%
    14:00 +9°C° 0.2 mm 2 mps 678 mmHg 85%
    15:00 +9°C° 0.2 mm 2 mps 678 mmHg 83%
    16:00 +9°C° 0.2 mm 2 mps 678 mmHg 82%
    17:00 +8°C° 0.1 mm 2 mps 678 mmHg 86%
    18:00 +6°C° 0.1 mm 2 mps 678 mmHg 89%
    19:00 +6°C° 0.1 mm 1 mps 678 mmHg 93%
    20:00 +5°C° 0.1 mm 2 mps 679 mmHg 93%
    21:00 +4°C° 0.1 mm 2 mps 679 mmHg 94%
    22:00 +4°C° 0.1 mm 2 mps 679 mmHg 94%
    23:00 +4°C° 0.1 mm 2 mps 679 mmHg 93%

    Tomorrow, 21 September, Thursday

    Time Temperature Precipitation Wind Pressure Humidity
    00:00 +3°C° 0.1 mm 2 mps 679 mmHg 93%
    01:00 +3°C° 0.1 mm 2 mps 679 mmHg 92%
    02:00 +3°C° 0 mm 2 mps 679 mmHg 91%
    03:00 +2°C° 0 mm 2 mps 679 mmHg 90%
    04:00 +2°C° 0 mm 2 mps 679 mmHg 89%
    05:00 +2°C° 0 mm 2 mps 679 mmHg 87%
    06:00 +3°C° 0 mm 2 mps 679 mmHg 85%
    07:00 +4°C° 0 mm 1 mps 679 mmHg 83%
    08:00 +7°C° 0 mm 1 mps 679 mmHg 78%
    09:00 +9°C° 0 mm 1 mps 679 mmHg 73%
    10:00 +12°C° 0 mm 1 mps 680 mmHg 69%
    11:00 +13°C° 0 mm 1 mps 679 mmHg 67%
    12:00 +13°C° 0 mm 1 mps 679 mmHg 64%
    13:00 +14°C° 0 mm 1 mps 679 mmHg 62%
    14:00 +14°C° 0 mm 1 mps 679 mmHg 64%
    15:00 +14°C° 0 mm 1 mps 679 mmHg 66%
    16:00 +14°C° 0 mm 1 mps 678 mmHg 68%
    17:00 +11°C° 0 mm 1 mps 678 mmHg 74%
    18:00 +9°C° 0 mm 1 mps 678 mmHg 81%
    19:00 +7°C° 0 mm 1 mps 678 mmHg 87%
    20:00 +6°C° 0 mm 1 mps 678 mmHg 86%
    21:00 +6°C° 0 mm 1 mps 678 mmHg 84%
    22:00 +6°C° 0 mm 1 mps 678 mmHg 82%
    23:00 +6°C° 0 mm 1 mps 678 mmHg 79%

    Day after tomorrow, 22 September, Friday

    Time Temperature Precipitation Wind Pressure Humidity
    00:00 +6°C° 0 mm 1 mps 678 mmHg 76%
    01:00 +6°C° 0 mm 1 mps 679 mmHg 73%
    02:00 +6°C° 0 mm 1 mps 678 mmHg 71%
    03:00 +6°C° 0 mm 1 mps 678 mmHg 70%
    04:00 +6°C° 0 mm 1 mps 678 mmHg 68%
    05:00 +6°C° 0 mm 1 mps 679 mmHg 69%
    06:00 +7°C° 0 mm 1 mps 679 mmHg 69%
    07:00 +7°C° 0 mm 1 mps 679 mmHg 69%
    08:00 +10°C° 0 mm 1 mps 679 mmHg 66%
    09:00 +13°C° 0 mm 1 mps 680 mmHg 63%
    10:00 +16°C° 0 mm 1 mps 680 mmHg 59%
    11:00 +16°C° 0 mm 1 mps 680 mmHg 59%
    12:00 +18°C° 0 mm 1 mps 681 mmHg 58%
    13:00 +19°C° 0 mm 1 mps 681 mmHg 58%
    14:00 +18°C° 0 mm 1 mps 681 mmHg 60%
    15:00 +18°C° 0 mm 1 mps 681 mmHg 63%
    16:00 +16°C° 0 mm 1 mps 680 mmHg 65%
    17:00 +14°C° 0 mm 1 mps 680 mmHg 73%
    18:00 +12°C° 0 mm 1 mps 680 mmHg 80%
    19:00 +9°C° 0 mm 1 mps 680 mmHg 88%
    20:00 +9°C° 0 mm 1 mps 680 mmHg 88%
    21:00 +9°C° 0 mm 1 mps 681 mmHg 89%
    22:00 +8°C° 0 mm 1 mps 681 mmHg 90%
    23:00 +8°C° 0 mm 1 mps 681 mmHg 90%

    23 September, Saturday

    Time Temperature Precipitation Wind Pressure Humidity
    00:00 +8°C° 0 mm 1 mps 681 mmHg 89%
    01:00 +8°C° 0 mm 1 mps 681 mmHg 89%
    02:00 +8°C° 0 mm 1 mps 681 mmHg 89%
    03:00 +8°C° 0 mm 1 mps 681 mmHg 89%
    04:00 +8°C° 0 mm 1 mps 681 mmHg 88%
    05:00 +8°C° 0 mm 1 mps 681 mmHg 87%
    06:00 +8°C° 0 mm 1 mps 681 mmHg 86%
    07:00 +9°C° 0 mm 1 mps 682 mmHg 85%
    08:00 +11°C° 0 mm 1 mps 682 mmHg 78%
    09:00 +14°C° 0 mm 1 mps 682 mmHg 72%
    10:00 +15°C° 0 mm 0 mps 683 mmHg 66%
    11:00 +18°C° 0 mm 1 mps 683 mmHg 64%
    12:00 +18°C° 0 mm 1 mps 682 mmHg 63%
    13:00 +19°C° 0 mm 1 mps 682 mmHg 62%
    14:00 +18°C° 0.2 mm 1 mps 682 mmHg 67%
    15:00 +18°C° 0.2 mm 1 mps 682 mmHg 73%
    16:00 +16°C° 0.2 mm 1 mps 681 mmHg 78%
    17:00 +14°C° 0.2 mm 1 mps 681 mmHg 84%
    18:00 +12°C° 0.2 mm 1 mps 681 mmHg 89%
    19:00 +9°C° 0.2 mm 0 mps 681 mmHg 95%
    20:00 +10°C° 0 mm 1 mps 681 mmHg 95%
    21:00 +9°C° 0 mm 1 mps 681 mmHg 95%
    22:00 +9°C° 0 mm 1 mps 681 mmHg 96%
    23:00 +9°C° 0 mm 1 mps 681 mmHg 96%

    24 September, Sunday

    Time Temperature Precipitation Wind Pressure Humidity
    00:00 +8°C° 0 mm 1 mps 681 mmHg 96%
    01:00 +8°C° 0 mm 1 mps 681 mmHg 96%
    02:00 +8°C° 0 mm 1 mps 681 mmHg 95%
    03:00 +8°C° 0 mm 1 mps 680 mmHg 95%
    04:00 +7°C° 0 mm 1 mps 680 mmHg 95%
    05:00 +8°C° 0 mm 1 mps 680 mmHg 94%
    06:00 +8°C° 0 mm 1 mps 681 mmHg 93%
    07:00 +8°C° 0 mm 1 mps 681 mmHg 92%
    08:00 +10°C° 0 mm 1 mps 681 mmHg 86%
    09:00 +13°C° 0 mm 1 mps 681 mmHg 80%
    10:00 +15°C° 0 mm 1 mps 682 mmHg 75%
    11:00 +15°C° 0.1 mm 1 mps 682 mmHg 71%
    12:00 +16°C° 0.1 mm 1 mps 682 mmHg 68%
    13:00 +17°C° 0.1 mm 2 mps 681 mmHg 64%
    14:00 +16°C° 0.1 mm 2 mps 681 mmHg 67%
    15:00 +16°C° 0.1 mm 2 mps 681 mmHg 71%
    16:00 +15°C° 0.1 mm 2 mps 681 mmHg 74%
    17:00 +13°C° 0.1 mm 2 mps 681 mmHg 81%
    18:00 +11°C° 0.1 mm 1 mps 680 mmHg 88%
    19:00 +9°C° 0.1 mm 1 mps 680 mmHg 96%
    20:00 +9°C° 0 mm 1 mps 680 mmHg 96%
    21:00 +9°C° 0 mm 1 mps 681 mmHg 96%
    22:00 +8°C° 0 mm 1 mps 681 mmHg 96%
    23:00 +8°C° 0 mm 1 mps 681 mmHg 95%

    25 September, Monday

    Time Temperature Precipitation Wind Pressure Humidity
    00:00 +7°C° 0 mm 1 mps 680 mmHg 94%
    01:00 +7°C° 0 mm 1 mps 680 mmHg 94%
    02:00 +6°C° 0 mm 1 mps 680 mmHg 92%
    03:00 +6°C° 0 mm 1 mps 680 mmHg 91%
    04:00 +6°C° 0 mm 1 mps 680 mmHg 89%
    05:00 +7°C° 0 mm 1 mps 680 mmHg 89%
    06:00 +7°C° 0 mm 1 mps 680 mmHg 89%
    07:00 +7°C° 0 mm 1 mps 680 mmHg 88%
    08:00 +9°C° 0 mm 1 mps 680 mmHg 82%
    09:00 +12°C° 0 mm 1 mps 680 mmHg 76%
    10:00 +14°C° 0 mm 1 mps 680 mmHg 70%
    11:00 +14°C° 0 mm 2 mps 680 mmHg 69%
    12:00 +15°C° 0 mm 2 mps 680 mmHg 67%
    13:00 +16°C° 0 mm 2 mps 680 mmHg 66%
    14:00 +15°C° 0.1 mm 2 mps 679 mmHg 68%
    15:00 +15°C° 0.1 mm 2 mps 679 mmHg 71%
    16:00 +15°C° 0.1 mm 2 mps 679 mmHg 74%
    17:00 +13°C° 0 mm 1 mps 679 mmHg 81%
    18:00 +11°C° 0 mm 1 mps 679 mmHg 89%
    19:00 +9°C° 0 mm 1 mps 679 mmHg 96%
    20:00 +9°C° 0 mm 1 mps 679 mmHg 96%
    21:00 +9°C° 0 mm 1 mps 679 mmHg 97%
    22:00 +8°C° 0 mm 1 mps 679 mmHg 97%
    23:00 +8°C° 0 mm 1 mps 678 mmHg 97%
    Show more